User: anonymous   Login
Location: Amon Carter Post Office
(32.8281°N, 97.0484°W)
Time: 17:45:03
(UTC+00:00)
Language:

deb Delta 89 - Orbit

View from above orbital plane
View from above orbital plane
View from above satellite
View from above satellite

Ground track
Ground track

The orbit data is extracted from the following two-line orbital elements,

1  8539U 72058GN  22279.08561495  .00000902  00000-0  36850-3 0  9993
2  8539  97.2867 152.7967 0210406  22.9095 338.1303 14.17792771582960
Epoch (UTC): 06 October 2022 02:03:17
Eccentricity: 0.0210406
inclination: 97.2867°
perigee height: 681 km
apogee height: 984 km
right ascension of ascending node: 152.7967°
argument of perigee: 22.9095°
revolutions per day: 14.17792771
mean anomaly at epoch: 338.1303°
orbit number at epoch: 58296

The dashed part of the orbit path shows where the satellite is in the earth's shadow,  

DLR